Preview of NWS' New Version of Forecast
This preview is not operational and should not be used for support decisions.

Regional Weather Roundup (RWR)

Issued by National Weather Service (NWS)

                            
000
ASUS44 KMEG 201510
RWRTN 
TENNESSEE HOURLY STATE WEATHER ROUNDUP
NATIONAL WEATHER SERVICE MEMPHIS TN
1000 AM CDT THU JUN 20 2019

TNZ002-004-019-021-049-052-054-088>092-201600-
WEST TENNESSEE
  
CITY           SKY/WX    TMP DP  RH WIND       PRES   REMARKS
MEMPHIS INTL   FAIR      79  68  69 W12       29.81R                  
NWS MEMPHIS      N/A     77 N/A N/A MISG        N/A                   
JACKSON        PTSUNNY   76  70  82 W10       29.80R                  
DYERSBURG      CLOUDY    76  70  82 W9        29.80R                  
COVINGTON      CLOUDY    77  70  78 NW12      29.79S                  
UNION CITY     PTSUNNY   77  70  78 W9        29.76R                  
BOLIVAR        SUNNY     79  68  69 W15G21    29.78S                  
HUNTINGDON     CLOUDY    75  70  83 W9        29.77S                  
LEXINGTON      PTSUNNY   75  68  78 VRB5G12   29.77S                  
SELMER         MOSUNNY   77  68  73 W12G18    29.78F                  
SAVANNAH       MOSUNNY   79  68  69 W8G16     29.79S                  
$$

TNZ008-025-027-028-033-062-065-066-201600-
NORTH MIDDLE TENNESSEE
  
CITY           SKY/WX    TMP DP  RH WIND       PRES   REMARKS
NASHVILLE      LGT RAIN  72  66  81 SW6       29.78F                  
DICKSON        MOSUNNY   70  68  94 SW9       29.77S                  
PORTLAND       PTSUNNY   68  66  94 VRB5      29.77S                  
CLARKSVILLE    PTSUNNY   70  66  87 SW9       29.75S                  
LEBANON        MOSUNNY   72  68  88 SW8       29.76F                  
SMYRNA         LGT RAIN  72  67  84 SW6       29.80S                  
MURFREESBORO   PTSUNNY   75  68  78 W6        29.79S                  
COOKEVILLE     CLOUDY    72  68  88 S7        29.82S                  
LIVINGSTON     PTSUNNY   68  66  94 SW12G20   29.82R                  
GALLATIN       MOSUNNY   70  68  94 SE3       29.79F                  
CROSSVILLE     FAIR      69  64  84 W13G21    29.87R                  
ROCKWOOD       MOSUNNY   72  64  78 SW8       29.85R                  
$$

TNZ061-075-076-078-094-096-097-201600-
SOUTH MIDDLE TENNESSEE
  
CITY           SKY/WX    TMP DP  RH WIND       PRES   REMARKS
LAWRENCEBURG   MOSUNNY   75  68  78 VRB6      29.81S                  
LEWISBURG      SUNNY     73  70  88 S7        29.80S                  
FAYETTEVILLE   MOSUNNY   72  68  88 SW8       29.83S                  
TULLAHOMA      PTSUNNY   70  66  88 S6        29.83R                  
WINCHESTER     MOSUNNY   72  66  83 SW7       29.84S                  
MCMINNVILLE    MOSUNNY   72  68  88 SW3       29.83S                  
COLUMBIA       PTSUNNY   75  73  94 SW12      29.78S                  
SHELBYVILLE    PTSUNNY   73  68  83 S8        29.81R                  
$$

TNZ017-018-042-046-047-201600-
NORTHEAST TENNESSEE
  
CITY           SKY/WX    TMP DP  RH WIND       PRES   REMARKS
TRI CITIES     CLOUDY    74  67  78 SW13      29.82S                  
ELIZABETHTON   CLOUDY    72  68  88 W7        29.83R                  
GREENEVILLE    CLOUDY    70  68  94 SW7       29.84R FOG              
$$

TNZ012-013-036-069-073-074-201600-
CENTRAL EAST TENNESSEE
  
CITY           SKY/WX    TMP DP  RH WIND       PRES   REMARKS
KNOXVILLE      CLOUDY    75  67  76 SW21      29.81R                  
OAK RIDGE      FAIR      73  68  84 VRB7      29.83R                  
DOWNTOWN KNOXV MOSUNNY   75  70  83 W7G18     29.82R                  
GATLINBURG     PTSUNNY   79  68  69 W5        29.81R                  
MORRISTOWN     CLOUDY    72  70  94 W8        29.81F                  
JACKSBORO      PTSUNNY   73  64  73 SW9       29.84R                  
$$

TNZ083-085-099-201600-
SOUTHEAST TENNESSEE
  
CITY           SKY/WX    TMP DP  RH WIND       PRES   REMARKS
CHATTANOOGA    CLOUDY    78  66  66 W6        29.84R                  
$$

SKY/WX REPORTED AS FAIR MEANS FEW OR NO CLOUDS BELOW
12 THOUSAND FEET.